FENGYUN 1C DEB

基本信息
目录编号:
32114
目录名称:
FENGYUN 1C DEB
国际标识:
1999-025CRG
轨道中心:
EARTH
物体状态:
在轨
发射日期:
1999-05-10 UTC
轨道信息
数据来源: 国际轨道数据
星历时间: 2026-09-03T02:54:59+0800
半长轴: 6994.044km
偏心率: 0.0039575
轨道倾角: 99.945°
近地点辐角: 257.858°
升交点赤经: 70.501°
平近点角: 101.819°
近地点: 588.228km
远地点: 643.586km
周期: 97.018分钟
每日圈数: 14.842609
详细信息
发射场:
TSC
轨道高度:
LEO
数据来源:
AOE Integration Group
参考系:
TEME
时间系统:
UTC
历元类型:
SGP4
2D轨道图
3D轨道图
轨道高度分析图
轨道倾角分析图
轨道综合分析图
查看轨道综合分析图